EW5040 Weather Reports


time (UTC)temp
C
wind
direction
speed
KPH
gust
KPH
rain 1hr
cm
rain 24hr
cm
rain mn
cm
humidity
%
barometer
mb
20260506144512 8 63 0.0 4.8 0.03 2.44 0.94 96 1008.8
20260506143011 8 63 1.6 6.4 0.05 2.44 0.94 97 1008.5
20260506141508 8 63 0.0 4.8 0.03 2.41 0.91 97 1008.5
20260506140005 8 63 0.0 4.8 0.03 2.41 0.91 97 1008.5
20260506134505 7 63 0.0 4.8 0.03 2.41 0.91 97 1008.4
20260506133003 7 63 1.6 6.4 0.00 2.39 0.89 97 1008.1
20260506131502 7 63 1.6 8.0 0.03 2.39 0.89 97 1008.0
20260506130100 7 63 0.0 4.8 0.03 2.39 0.89 97 1008.0
20260506124559 7 63 0.0 6.4 0.03 2.39 0.89 97 1007.8
20260506123058 7 63 0.0 3.2 0.05 2.39 0.89 97 1007.8
20260506121555 7 63 1.6 4.8 0.03 2.36 0.86 97 1007.7
20260506120053 7 63 0.0 3.2 0.05 2.36 0.86 97 1007.5
20260506114558 7 63 0.0 6.4 0.08 2.36 0.86 97 1007.3
20260506113058 7 63 0.0 3.2 0.05 2.34 0.84 97 1007.2
20260506111551 7 63 0.0 8.0 0.08 2.34 0.84 97 1007.2
20260506110047 7 42 1.6 4.8 0.05 2.31 0.81 97 1007.4
20260506104555 7 48 0.0 3.2 0.05 2.29 0.79 97 1007.6
20260506103051 7 46 0.0 4.8 0.08 2.29 0.79 97 1007.3
20260506101549 7 53 0.0 9.7 0.08 2.26 0.76 97 1007.3
20260506100041 7 12 3.2 12.9 0.10 2.26 0.76 97 1007.2
20260506094537 7 51 1.6 4.8 0.13 2.24 0.71 97 1007.5
20260506093037 7 319 1.6 4.8 0.15 2.21 0.71 97 1007.8
20260506091535 7 12 0.0 4.8 0.15 2.18 0.69 97 1007.6
20260506090033 8 13 0.0 3.2 0.15 2.16 0.66 97 1007.7
20260506084539 8 13 1.6 6.4 0.15 2.11 0.61 97 1007.7
20260506083033 8 13 0.0 3.2 0.13 2.06 0.56 97 1007.2
20260506081529 8 13 0.0 3.2 0.13 2.03 0.53 97 1007.0
20260506073023 8 13 0.0 6.4 0.10 1.93 0.43 97 1007.3
20260506071522 8 315 0.0 1.6 0.13 1.91 0.41 97 1007.3
20260506061515 8 311 0.0 4.8 0.08 1.78 0.28 97 1007.8
20260506044503 8 168 0.0 3.2 0.10 1.73 0.10 97 1008.5
20260506043100 8 168 0.0 1.6 0.08 1.68 0.05 96 1008.3
20260506041556 8 168 0.0 1.6 0.05 1.65 0.03 96 1008.1
20260506040055 8 168 0.0 0.0 0.03 1.63 0.00 96 1008.0
20260506034553 8 168 0.0 1.6 0.08 1.68 1.63 96 1008.0
20260506033054 8 168 0.0 0.0 0.10 1.65 1.60 96 1008.0
20260506031553 8 168 0.0 1.6 0.13 1.65 1.60 96 1008.1
20260506030057 8 168 0.0 3.2 0.13 1.63 1.57 96 1008.3
20260506024557 8 168 0.0 3.2 0.13 1.60 1.55 96 1008.2
20260506023058 8 168 1.6 3.2 0.10 1.55 1.50 96 1008.2
20260506021604 8 168 0.0 3.2 0.05 1.50 1.42 96 1008.6
20260506020050 8 168 1.6 3.2 0.08 1.50 1.42 96 1008.6
20260506014550 8 168 0.0 4.8 0.08 1.57 1.42 96 1008.4
20260506013048 8 168 1.6 8.0 0.10 1.55 1.40 96 1008.7
20260506011545 9 197 3.2 6.4 0.18 1.55 1.40 96 1008.8
20260506010050 9 193 0.0 0.0 0.25 1.52 1.37 96 1008.2
20260506004547 9 193 0.0 0.0 0.36 1.50 1.35 95 1008.4
20260506003039 9 193 0.0 0.0 0.41 1.42 1.30 96 1008.5
20260506001543 9 193 0.0 0.0 0.38 1.37 1.22 96 1008.5
20260506000037 9 193 0.0 0.0 0.33 1.27 1.12 95 1008.3
20260505234555 9 193 0.0 0.0 0.25 1.14 0.99 95 1008.2
20260505233038 9 316 0.0 0.0 0.20 1.04 0.89 95 1007.8
20260505231534 9 316 0.0 0.0 0.23 0.99 0.84 95 1007.9
20260505230032 9 316 0.0 0.0 0.23 0.94 0.79 95 1007.3
20260505224534 9 316 0.0 3.2 0.25 0.89 0.71 95 1007.7
20260505223033 10 316 0.0 9.7 0.28 0.84 0.69 95 1007.8
20260505221528 10 338 3.2 9.7 0.28 0.76 0.61 95 1007.7
20260505220027 10 247 1.6 4.8 0.28 0.71 0.56 94 1007.8
20260505214554 10 257 1.6 8.0 0.30 0.64 0.48 94 1007.7
20260505213023 10 261 3.2 19.3 0.28 0.56 0.41 94 1007.3
20260505211520 10 219 3.2 12.9 0.20 0.48 0.33 93 1006.8
20260505210020 10 206 1.6 12.9 0.13 0.41 0.25 93 1006.7
20260505204519 10 192 4.8 11.3 0.05 0.33 0.18 91 1006.5
20260505203023 11 240 3.2 11.3 0.00 0.28 0.13 91 1006.1
20260505201523 11 215 4.8 11.3 0.00 0.28 0.13 91 1005.9
20260505200014 10 198 6.4 17.7 0.00 0.28 0.13 90 1006.0
20260505194514 11 218 8.0 19.3 0.00 0.28 0.13 87 1006.0
20260505193010 12 186 8.0 16.1 0.00 0.28 0.13 82 1005.7
20260505191509 13 175 6.4 16.1 0.00 0.28 0.13 79 1005.2
20260505190007 15 153 11.3 27.4 0.00 0.28 0.13 75 1005.4
20260505184506 17 146 9.7 24.1 0.00 0.28 0.13 72 1005.4
20260505183010 17 252 11.3 24.1 0.00 0.28 0.13 71 1005.0
20260505181501 17 189 8.0 29.0 0.00 0.28 0.13 74 1004.8
20260505180112 16 215 8.0 24.1 0.00 0.28 0.13 75 1004.7
20260505174606 16 244 11.3 37.0 0.00 0.28 0.13 75 1004.5
20260505173100 16 218 16.1 40.2 0.00 0.28 0.13 74 1004.4
20260505171558 16 250 16.1 35.4 0.00 0.28 0.13 75 1004.6
20260505170057 16 236 16.1 35.4 0.00 0.28 0.13 75 1004.7
20260505164557 17 252 17.7 38.6 0.00 0.28 0.13 72 1004.7
20260505163055 16 253 11.3 29.0 0.00 0.28 0.13 74 1004.3
20260505161604 16 215 11.3 33.8 0.00 0.28 0.13 74 1004.0
20260505153048 15 203 12.9 41.8 0.00 0.28 0.13 74 1004.5
20260505151545 16 244 11.3 32.2 0.00 0.28 0.13 71 1003.9